N9BID Weather Reports


time (UTC)temp
C
wind
direction
speed
KPH
gust
KPH
rain 1hr
cm
rain 24hr
cm
rain mn
cm
humidity
%
barometer
mb
20260503051400 10 222 6.4 11.3 0.00 0.00 0.00 61 1002.1
20260503050858 10 239 6.4 12.9 0.00 0.00 0.00 62 1002.1
20260503050354 10 223 9.7 14.5 0.00 0.00 0.00 62 1002.3
20260503045851 10 210 4.8 11.3 0.00 0.00 0.00 62 1002.3
20260503045349 9 204 4.8 6.4 0.00 0.00 0.00 63 1002.2
20260503044845 8 213 1.6 3.2 0.00 0.00 0.00 65 1002.3
20260503044342 8 192 1.6 1.6 0.00 0.00 0.00 67 1002.3
20260503043839 8 177 0.0 1.6 0.00 0.00 0.00 65 1002.5
20260503043336 8 182 1.6 1.6 0.00 0.00 0.00 65 1002.6
20260503042832 8 197 1.6 1.6 0.00 0.00 0.00 66 1002.5
20260503042329 8 177 0.0 1.6 0.00 0.00 0.00 66 1002.5
20260503041825 8 176 0.0 1.6 0.00 0.00 0.00 66 1002.6
20260503041323 8 175 1.6 1.6 0.00 0.00 0.00 64 1002.6
20260503040820 8 171 0.0 0.0 0.00 0.00 0.00 64 1002.5
20260503040318 8 179 0.0 1.6 0.00 0.00 0.00 64 1002.9
20260503035815 8 184 1.6 1.6 0.00 0.00 0.00 64 1002.6
20260503035312 9 187 1.6 1.6 0.00 0.00 0.00 65 1002.7
20260503034809 9 180 1.6 1.6 0.00 0.00 0.00 65 1003.0
20260503034306 9 175 0.0 1.6 0.00 0.00 0.00 64 1003.1
20260503033803 8 187 3.2 3.2 0.00 0.00 0.00 64 1003.2
20260503033300 8 181 1.6 1.6 0.00 0.00 0.00 66 1003.1
20260503032758 9 177 1.6 3.2 0.00 0.00 0.00 66 1003.2
20260503032257 8 182 0.0 1.6 0.00 0.00 0.00 66 1003.1
20260503031754 9 181 0.0 1.6 0.00 0.00 0.00 67 1003.2
20260503031252 9 181 1.6 3.2 0.00 0.00 0.00 66 1003.4
20260503030748 10 184 1.6 3.2 0.00 0.00 0.00 64 1003.3
20260503030245 10 185 1.6 1.6 0.00 0.00 0.00 64 1003.6
20260503025741 10 175 0.0 3.2 0.00 0.00 0.00 65 1003.6
20260503025239 10 176 0.0 1.6 0.00 0.00 0.00 64 1003.6
20260503024736 10 181 1.6 1.6 0.00 0.00 0.00 62 1003.6
20260503024233 11 171 1.6 3.2 0.00 0.00 0.00 59 1003.6
20260503023729 11 193 1.6 3.2 0.00 0.00 0.00 59 1003.6
20260503023226 11 209 3.2 3.2 0.00 0.00 0.00 58 1003.8
20260503022722 11 205 3.2 3.2 0.00 0.00 0.00 59 1003.9
20260503022217 11 193 1.6 4.8 0.00 0.00 0.00 59 1003.8
20260503021714 10 205 3.2 3.2 0.00 0.00 0.00 60 1003.9
20260503021210 10 190 1.6 4.8 0.00 0.00 0.00 60 1004.0
20260503020708 10 176 0.0 1.6 0.00 0.00 0.00 62 1004.1
20260503020205 10 188 0.0 1.6 0.00 0.00 0.00 61 1004.0
20260503015702 10 181 1.6 1.6 0.00 0.00 0.00 63 1004.0
20260503015159 10 180 0.0 1.6 0.00 0.00 0.00 61 1003.8
20260503014654 10 181 0.0 1.6 0.00 0.00 0.00 58 1004.1
20260503014153 11 181 1.6 1.6 0.00 0.00 0.00 58 1004.0
20260503013649 10 201 1.6 1.6 0.00 0.00 0.00 59 1003.9
20260503013147 10 195 1.6 3.2 0.00 0.00 0.00 62 1003.7
20260503012644 10 177 1.6 1.6 0.00 0.00 0.00 60 1004.0
20260503012141 11 180 0.0 1.6 0.00 0.00 0.00 59 1003.9
20260503011637 11 188 1.6 1.6 0.00 0.00 0.00 57 1003.9
20260503011135 11 177 1.6 3.2 0.00 0.00 0.00 55 1004.0
20260503010631 11 198 3.2 4.8 0.00 0.00 0.00 55 1004.1
20260503010128 11 188 1.6 3.2 0.00 0.00 0.00 56 1004.1
20260503005625 11 205 3.2 3.2 0.00 0.00 0.00 54 1004.2
20260503005122 11 202 1.6 3.2 0.00 0.00 0.00 55 1004.4
20260503004618 12 210 3.2 3.2 0.00 0.00 0.00 53 1004.3
20260503004117 12 185 1.6 3.2 0.00 0.00 0.00 52 1004.3
20260503003614 12 221 1.6 3.2 0.00 0.00 0.00 51 1004.3
20260503003111 12 224 6.4 6.4 0.00 0.00 0.00 51 1004.4
20260503002608 12 244 1.6 3.2 0.00 0.00 0.00 50 1004.4
20260503002104 12 179 1.6 6.4 0.00 0.00 0.00 48 1004.4
20260503001600 12 245 4.8 9.7 0.00 0.00 0.00 48 1004.4
20260503001058 13 237 4.8 11.3 0.00 0.00 0.00 48 1004.3
20260503000555 13 264 4.8 6.4 0.00 0.00 0.00 47 1004.5
20260503000052 13 198 1.6 4.8 0.00 0.00 0.00 47 1004.4
20260502235548 13 267 4.8 9.7 0.00 0.00 0.00 45 1004.1
20260502235047 13 201 1.6 9.7 0.00 0.00 0.00 46 1004.5
20260502234542 13 269 6.4 9.7 0.00 0.00 0.00 45 1004.8
20260502234040 13 279 6.4 11.3 0.00 0.00 0.00 43 1004.5
20260502233540 14 240 3.2 6.4 0.00 0.00 0.00 44 1004.6
20260502233038 13 262 3.2 6.4 0.00 0.00 0.00 47 1004.5
20260502232534 13 280 3.2 4.8 0.00 0.00 0.00 48 1004.5
20260502232031 13 237 6.4 11.3 0.00 0.00 0.00 45 1004.7
20260502231528 13 223 3.2 11.3 0.00 0.00 0.00 44 1004.5
20260502231026 13 326 6.4 12.9 0.00 0.00 0.00 44 1004.7
20260502230524 13 276 9.7 12.9 0.00 0.00 0.00 42 1004.9
20260502230023 14 250 6.4 9.7 0.00 0.00 0.00 42 1004.6
20260502225522 13 252 3.2 11.3 0.00 0.00 0.00 43 1004.7
20260502225020 13 249 9.7 14.5 0.00 0.00 0.00 43 1004.7
20260502224516 14 245 4.8 14.5 0.00 0.00 0.00 44 1004.6
20260502224014 15 308 4.8 14.5 0.00 0.00 0.00 44 1004.6
20260502223511 15 252 9.7 17.7 0.00 0.00 0.00 39 1004.7
20260502223009 15 187 6.4 11.3 0.00 0.00 0.00 38 1005.2
20260502222506 15 265 6.4 9.7 0.00 0.00 0.00 41 1004.8
20260502222002 15 300 6.4 9.7 0.00 0.00 0.00 39 1005.0
20260502221458 15 278 6.4 11.3 0.00 0.00 0.00 40 1005.2
20260502220955 15 231 9.7 16.1 0.00 0.00 0.00 40 1004.9
20260502220451 15 273 6.4 11.3 0.00 0.00 0.00 40 1005.0
20260502215948 15 256 6.4 9.7 0.00 0.00 0.00 39 1005.1
20260502215445 15 314 8.0 11.3 0.00 0.00 0.00 39 1005.2
20260502214942 15 305 6.4 12.9 0.00 0.00 0.00 40 1005.3
20260502214439 15 231 6.4 14.5 0.00 0.00 0.00 42 1005.2
20260502213936 15 289 6.4 14.5 0.00 0.00 0.00 41 1005.1
20260502213433 14 214 12.9 16.1 0.00 0.00 0.00 37 1005.2
20260502212931 15 246 12.9 16.1 0.00 0.00 0.00 37 1005.4
20260502212430 14 268 8.0 20.9 0.00 0.00 0.00 39 1005.3
20260502211927 15 250 8.0 16.1 0.00 0.00 0.00 40 1005.4
20260502211422 15 315 8.0 11.3 0.00 0.00 0.00 38 1005.7
20260502210920 15 251 9.7 20.9 0.00 0.00 0.00 40 1005.8
20260502210417 15 322 3.2 6.4 0.00 0.00 0.00 42 1005.7
20260502205914 14 271 8.0 14.5 0.00 0.00 0.00 41 1005.5
20260502205410 14 294 6.4 12.9 0.00 0.00 0.00 41 1006.0
20260502204908 14 222 4.8 16.1 0.00 0.00 0.00 41 1005.9
20260502204404 14 273 11.3 14.5 0.00 0.00 0.00 43 1006.1
20260502203902 14 284 3.2 14.5 0.00 0.00 0.00 39 1005.8
20260502203359 15 283 8.0 14.5 0.00 0.00 0.00 45 1006.1
20260502202855 14 228 14.5 22.5 0.00 0.00 0.00 42 1006.1
20260502202352 13 310 8.0 22.5 0.00 0.00 0.00 43 1006.2
20260502201850 13 253 12.9 16.1 0.00 0.00 0.00 41 1006.2
20260502201346 14 228 6.4 9.7 0.00 0.00 0.00 41 1006.3
20260502200842 14 293 8.0 12.9 0.00 0.00 0.00 48 1006.3
20260502200338 13 285 6.4 14.5 0.00 0.00 0.00 45 1006.3
20260502195837 13 223 6.4 12.9 0.00 0.00 0.00 39 1006.5
20260502195333 14 250 8.0 11.3 0.00 0.00 0.00 42 1006.5
20260502194830 13 265 3.2 9.7 0.00 0.00 0.00 45 1006.8
20260502194327 13 282 8.0 11.3 0.00 0.00 0.00 41 1006.6
20260502193822 13 240 8.0 11.3 0.00 0.00 0.00 45 1006.7
20260502193320 13 301 6.4 12.9 0.00 0.00 0.00 41 1006.9
20260502192815 13 236 3.2 11.3 0.00 0.00 0.00 41 1007.0
20260502192313 13 284 3.2 9.7 0.00 0.00 0.00 42 1007.2
20260502191810 13 291 4.8 11.3 0.00 0.00 0.00 44 1007.2
20260502191307 13 253 6.4 17.7 0.00 0.00 0.00 44 1007.2
20260502190804 13 242 3.2 11.3 0.00 0.00 0.00 41 1007.2
20260502190301 13 247 16.1 16.1 0.00 0.00 0.00 41 1007.3
20260502185757 13 261 9.7 14.5 0.00 0.00 0.00 42 1007.3
20260502185253 13 199 4.8 17.7 0.00 0.00 0.00 47 1007.4
20260502184749 13 259 6.4 16.1 0.00 0.00 0.00 40 1007.5
20260502184245 13 318 8.0 11.3 0.00 0.00 0.00 46 1007.6
20260502183743 12 215 6.4 17.7 0.00 0.00 0.00 50 1007.7
20260502183238 12 331 4.8 9.7 0.00 0.00 0.00 44 1007.5
20260502182734 12 244 6.4 14.5 0.00 0.00 0.00 42 1007.4
20260502182229 12 230 8.0 14.5 0.00 0.00 0.00 45 1007.8
20260502181726 12 239 1.6 6.4 0.00 0.00 0.00 44 1007.6
20260502181226 12 340 3.2 12.9 0.00 0.00 0.00 43 1007.8
20260502180722 12 253 8.0 12.9 0.00 0.00 0.00 42 1007.8
20260502180220 11 241 12.9 20.9 0.00 0.00 0.00 44 1007.9
20260502170144 11 230 9.7 12.9 0.00 0.00 0.00 46 1008.8
20260502164130 11 167 1.6 9.7 0.00 0.00 0.00 44 1008.7
20260502163626 12 345 4.8 9.7 0.00 0.00 0.00 46 1008.8
20260502163123 11 247 6.4 12.9 0.00 0.00 0.00 45 1008.8
20260502162620 11 243 6.4 12.9 0.00 0.00 0.00 45 1009.0
20260502162117 11 5 6.4 11.3 0.00 0.00 0.00 44 1009.0
20260502161614 11 300 4.8 6.4 0.00 0.00 0.00 50 1009.1
20260502161111 11 254 6.4 12.9 0.00 0.00 0.00 46 1009.1
20260502160609 11 303 8.0 11.3 0.00 0.00 0.00 48 1009.2
20260502160108 10 315 3.2 11.3 0.00 0.00 0.00 51 1009.3
20260502152022 10 242 4.8 6.4 0.00 0.00 0.00 54 1009.7
20260502151519 9 211 8.0 11.3 0.00 0.00 0.00 52 1009.6
20260502151016 9 303 6.4 9.7 0.00 0.00 0.00 52 1009.6
20260502150514 8 226 3.2 6.4 0.00 0.00 0.00 54 1009.5
20260502130358 6 183 4.8 9.7 0.00 0.00 0.00 62 1010.5
20260502123341 3 191 3.2 4.8 0.00 0.00 0.00 69 1010.5
20260502122838 3 177 1.6 1.6 0.00 0.00 0.00 72 1010.2
20260502122334 2 165 3.2 3.2 0.00 0.00 0.00 74 1010.3
20260502121833 2 169 0.0 1.6 0.00 0.00 0.00 79 1010.2
20260502121330 1 166 0.0 1.6 0.00 0.00 0.00 84 1010.4
20260502120827 1 164 0.0 0.0 0.00 0.00 0.00 88 1010.7
20260502120323 1 164 0.0 0.0 0.00 0.00 0.00 89 1010.4
20260502115821 1 164 0.0 0.0 0.00 0.00 0.00 89 1010.2
20260502115318 1 164 0.0 0.0 0.00 0.00 0.00 89 1010.4
20260502114814 1 163 0.0 1.6 0.00 0.00 0.00 89 1010.4
20260502114311 0 157 0.0 0.0 0.00 0.00 0.00 90 1010.4
20260502113808 0 157 0.0 0.0 0.00 0.00 0.00 92 1010.5
20260502113306 0 158 0.0 0.0 0.00 0.00 0.00 94 1010.3
20260502112803 0 160 0.0 0.0 0.00 0.00 0.00 94 1010.4
20260502112301 0 160 0.0 0.0 0.00 0.00 0.00 94 1010.3
20260502111758 0 160 0.0 0.0 0.00 0.00 0.00 93 1010.3
20260502111255 0 160 0.0 0.0 0.00 0.00 0.00 94 1010.3
20260502110752 0 160 0.0 0.0 0.00 0.00 0.00 93 1010.2
20260502110250 0 159 0.0 0.0 0.00 0.00 0.00 92 1010.3
20260502105748 0 158 0.0 0.0 0.00 0.00 0.00 93 1010.6
20260502105244 0 158 0.0 0.0 0.00 0.00 0.00 94 1010.3
20260502104742 0 158 0.0 0.0 0.00 0.00 0.00 95 1010.5
20260502104239 0 158 0.0 0.0 0.00 0.00 0.00 95 1010.4
20260502103737 0 162 0.0 0.0 0.00 0.00 0.00 95 1010.4
20260502103234 0 162 0.0 0.0 0.00 0.00 0.00 95 1010.4
20260502102731 0 161 0.0 0.0 0.00 0.00 0.00 95 1010.4
20260502102227 0 163 0.0 0.0 0.00 0.00 0.00 94 1010.3
20260502101726 0 163 0.0 0.0 0.00 0.00 0.00 94 1010.4
20260502101224 0 163 0.0 0.0 0.00 0.00 0.00 94 1010.4
20260502100721 0 163 0.0 0.0 0.00 0.00 0.00 94 1010.6
20260502100220 0 163 0.0 0.0 0.00 0.00 0.00 94 1010.7
20260502091154 0 163 0.0 0.0 0.00 0.00 0.00 92 1010.5
20260502090651 0 163 0.0 0.0 0.00 0.00 0.00 91 1010.7
20260502090148 0 163 0.0 0.0 0.00 0.00 0.00 90 1010.5
20260502080110 0 163 0.0 0.0 0.00 0.00 0.00 87 1010.6
20260502071043 0 168 0.0 0.0 0.00 0.00 0.00 90 1010.8
20260502070541 1 168 0.0 0.0 0.00 0.00 0.00 90 1010.8
20260502070039 1 181 0.0 0.0 0.00 0.00 0.00 89 1010.8
20260502065537 1 181 0.0 0.0 0.00 0.00 0.00 89 1011.0
20260502065034 1 181 0.0 0.0 0.00 0.00 0.00 88 1010.9
20260502064533 1 185 1.6 1.6 0.00 0.00 0.00 84 1010.9
20260502064030 1 162 0.0 0.0 0.00 0.00 0.00 81 1010.9
20260502063527 1 162 0.0 0.0 0.00 0.00 0.00 81 1011.1
20260502063025 1 162 0.0 0.0 0.00 0.00 0.00 86 1010.9
20260502062522 1 175 0.0 0.0 0.00 0.00 0.00 85 1011.3
20260502062020 1 175 0.0 0.0 0.00 0.00 0.00 85 1011.0
20260502061518 1 175 0.0 0.0 0.00 0.00 0.00 85 1011.4
20260502061015 1 175 0.0 0.0 0.00 0.00 0.00 83 1011.3
20260502060509 1 175 0.0 1.6 0.00 0.00 0.00 85 1011.0
20260502060007 1 166 0.0 0.0 0.00 0.00 0.00 81 1011.1
20260502055504 1 154 0.0 0.0 0.00 0.00 0.00 82 1011.3
20260502055003 1 153 0.0 0.0 0.00 0.00 0.00 82 1010.9
20260502054501 1 153 0.0 0.0 0.00 0.00 0.00 85 1011.0
20260502053958 0 156 0.0 1.6 0.00 0.00 0.00 84 1011.3
20260502053455 0 192 1.6 1.6 0.00 0.00 0.00 87 1011.0
20260502052953 0 159 0.0 0.0 0.00 0.00 0.00 86 1011.1
20260502052451 0 159 0.0 0.0 0.00 0.00 0.00 84 1011.1
20260502051949 0 158 0.0 0.0 0.00 0.00 0.00 85 1010.8